| time (UTC) | temp C | wind direction | speed KPH | gust KPH | rain 1hr cm | rain 24hr cm | rain mn cm | humidity % | barometer mb |
| 20260503181339 | 14 | 266 | 9.7 | 16.1 | 0.00 | 0.00 | 0.00 | 67 | 1012.8 |
| 20260503180320 | 13 | 243 | 8.0 | 19.3 | 0.00 | 0.00 | 0.00 | 70 | 1013.0 |
| 20260503175349 | 14 | 260 | 8.0 | 17.7 | 0.00 | 0.00 | 0.00 | 70 | 1013.0 |
| 20260503174314 | 13 | 274 | 9.7 | 19.3 | 0.00 | 0.00 | 0.00 | 70 | 1013.0 |
| 20260503173336 | 13 | 280 | 8.0 | 16.1 | 0.00 | 0.00 | 0.00 | 70 | 1013.0 |
| 20260503172331 | 13 | 246 | 8.0 | 14.5 | 0.00 | 0.00 | 0.00 | 70 | 1013.1 |
| 20260503171329 | 13 | 287 | 3.2 | 9.7 | 0.00 | 0.00 | 0.00 | 71 | 1013.0 |
| 20260503170335 | 13 | 265 | 3.2 | 14.5 | 0.00 | 0.00 | 0.00 | 71 | 1013.0 |
| 20260503150315 | 11 | 256 | 3.2 | 8.0 | 0.00 | 0.00 | 0.00 | 73 | 1012.4 |
| 20260503131348 | 11 | 264 | 0.0 | 4.8 | 0.00 | 0.00 | 0.00 | 77 | 1011.0 |
| 20260503130325 | 11 | 345 | 0.0 | 8.0 | 0.00 | 0.00 | 0.00 | 77 | 1010.8 |
| 20260503110321 | 11 | 345 | 6.4 | 14.5 | 0.00 | 0.00 | 0.00 | 76 | 1010.9 |
| 20260503090320 | 11 | 248 | 1.6 | 12.9 | 0.00 | 0.00 | 0.00 | 76 | 1011.3 |
| 20260503081321 | 11 | 345 | 6.4 | 9.7 | 0.00 | 0.00 | 0.00 | 76 | 1011.9 |
| 20260503080345 | 11 | 345 | 4.8 | 11.3 | 0.00 | 0.00 | 0.00 | 76 | 1011.8 |
| 20260503072329 | 11 | 345 | 4.8 | 9.7 | 0.00 | 0.00 | 0.00 | 76 | 1011.9 |
| 20260503071334 | 11 | 263 | 4.8 | 12.9 | 0.00 | 0.00 | 0.00 | 76 | 1011.8 |
| 20260503070318 | 11 | 314 | 1.6 | 16.1 | 0.00 | 0.00 | 0.00 | 76 | 1011.8 |
| 20260503060312 | 11 | 271 | 3.2 | 12.9 | 0.00 | 0.00 | 0.00 | 76 | 1012.2 |
| 20260503054329 | 11 | 292 | 1.6 | 9.7 | 0.00 | 0.00 | 0.00 | 76 | 1012.5 |
| 20260503053330 | 11 | 290 | 6.4 | 16.1 | 0.00 | 0.00 | 0.00 | 76 | 1012.4 |
| 20260503052353 | 11 | 259 | 4.8 | 12.9 | 0.00 | 0.00 | 0.00 | 76 | 1012.3 |
| 20260503051318 | 11 | 277 | 4.8 | 17.7 | 0.00 | 0.00 | 0.00 | 76 | 1012.3 |
| 20260503050323 | 11 | 302 | 8.0 | 14.5 | 0.00 | 0.00 | 0.00 | 76 | 1012.3 |
| 20260503045340 | 11 | 263 | 1.6 | 8.0 | 0.00 | 0.00 | 0.00 | 76 | 1012.2 |
| 20260503044349 | 11 | 283 | 9.7 | 19.3 | 0.00 | 0.00 | 0.00 | 76 | 1012.3 |
| 20260503043336 | 11 | 345 | 3.2 | 16.1 | 0.00 | 0.00 | 0.00 | 76 | 1012.3 |
| 20260503042324 | 11 | 345 | 4.8 | 16.1 | 0.00 | 0.00 | 0.00 | 76 | 1012.2 |
| 20260503041344 | 11 | 270 | 4.8 | 14.5 | 0.00 | 0.00 | 0.00 | 77 | 1012.2 |
| 20260503040331 | 11 | 345 | 1.6 | 9.7 | 0.00 | 0.00 | 0.00 | 77 | 1012.1 |
| 20260503035317 | 11 | 345 | 8.0 | 17.7 | 0.00 | 0.00 | 0.00 | 78 | 1012.0 |
| 20260503034326 | 11 | 345 | 6.4 | 20.9 | 0.00 | 0.00 | 0.00 | 77 | 1011.9 |
| 20260503032326 | 11 | 345 | 6.4 | 20.9 | 0.00 | 0.00 | 0.00 | 77 | 1011.6 |
| 20260503031313 | 11 | 345 | 4.8 | 19.3 | 0.00 | 0.00 | 0.00 | 77 | 1011.4 |
| 20260503030323 | 11 | 345 | 6.4 | 17.7 | 0.00 | 0.00 | 0.00 | 77 | 1011.5 |
| 20260503025318 | 11 | 345 | 9.7 | 20.9 | 0.00 | 0.00 | 0.00 | 77 | 1011.4 |
| 20260503024321 | 11 | 345 | 9.7 | 20.9 | 0.00 | 0.00 | 0.00 | 77 | 1011.5 |
| 20260503023333 | 11 | 345 | 6.4 | 22.5 | 0.00 | 0.00 | 0.00 | 77 | 1011.5 |
| 20260503022318 | 11 | 345 | 14.5 | 25.7 | 0.00 | 0.00 | 0.00 | 77 | 1011.5 |
| 20260503021327 | 11 | 345 | 9.7 | 22.5 | 0.00 | 0.00 | 0.00 | 78 | 1011.5 |
| 20260503020335 | 11 | 345 | 11.3 | 19.3 | 0.00 | 0.00 | 0.00 | 78 | 1011.6 |
| 20260503015346 | 11 | 345 | 9.7 | 20.9 | 0.00 | 0.00 | 0.00 | 78 | 1011.7 |
| 20260503014327 | 11 | 345 | 8.0 | 22.5 | 0.00 | 0.00 | 0.00 | 77 | 1011.7 |
| 20260503013333 | 12 | 345 | 11.3 | 24.1 | 0.00 | 0.00 | 0.00 | 77 | 1011.7 |
| 20260503012321 | 12 | 345 | 4.8 | 19.3 | 0.00 | 0.00 | 0.00 | 77 | 1011.8 |
| 20260503011331 | 12 | 345 | 12.9 | 19.3 | 0.00 | 0.00 | 0.00 | 76 | 1011.8 |
| 20260503010316 | 12 | 345 | 8.0 | 29.0 | 0.00 | 0.00 | 0.00 | 76 | 1011.8 |
| 20260503005327 | 12 | 345 | 9.7 | 25.7 | 0.00 | 0.00 | 0.00 | 75 | 1011.9 |
| 20260503004343 | 12 | 246 | 12.9 | 25.7 | 0.00 | 0.00 | 0.00 | 75 | 1011.9 |
| 20260503003321 | 12 | 264 | 11.3 | 24.1 | 0.00 | 0.00 | 0.00 | 75 | 1011.9 |
| 20260503002313 | 12 | 305 | 14.5 | 24.1 | 0.00 | 0.00 | 0.00 | 74 | 1011.9 |
| 20260503001325 | 13 | 252 | 11.3 | 22.5 | 0.00 | 0.00 | 0.00 | 74 | 1011.9 |
| 20260503000330 | 13 | 283 | 12.9 | 20.9 | 0.00 | 0.00 | 0.00 | 73 | 1011.9 |
| 20260502235321 | 13 | 258 | 12.9 | 25.7 | 0.00 | 0.00 | 0.00 | 72 | 1012.0 |
| 20260502234400 | 13 | 283 | 11.3 | 22.5 | 0.00 | 0.00 | 0.00 | 72 | 1011.9 |
| 20260502233318 | 14 | 261 | 11.3 | 25.7 | 0.00 | 0.00 | 0.00 | 71 | 1012.0 |
| 20260502232330 | 13 | 264 | 12.9 | 22.5 | 0.00 | 0.00 | 0.00 | 70 | 1012.1 |
| 20260502231318 | 14 | 283 | 12.9 | 22.5 | 0.00 | 0.00 | 0.00 | 70 | 1012.1 |
| 20260502230322 | 14 | 242 | 11.3 | 19.3 | 0.00 | 0.00 | 0.00 | 69 | 1012.3 |
| 20260502225327 | 14 | 254 | 16.1 | 22.5 | 0.00 | 0.00 | 0.00 | 69 | 1012.5 |
| 20260502224331 | 14 | 275 | 9.7 | 22.5 | 0.00 | 0.00 | 0.00 | 69 | 1012.6 |
| 20260502223330 | 14 | 241 | 12.9 | 27.4 | 0.00 | 0.00 | 0.00 | 70 | 1012.7 |
| 20260502222321 | 14 | 263 | 14.5 | 25.7 | 0.00 | 0.00 | 0.00 | 70 | 1012.8 |
| 20260502221337 | 14 | 263 | 14.5 | 20.9 | 0.00 | 0.00 | 0.00 | 69 | 1012.9 |
| 20260502220317 | 13 | 237 | 9.7 | 22.5 | 0.00 | 0.00 | 0.00 | 70 | 1013.0 |
| 20260502215314 | 13 | 244 | 16.1 | 27.4 | 0.00 | 0.00 | 0.00 | 71 | 1013.1 |
| 20260502214334 | 14 | 260 | 14.5 | 24.1 | 0.00 | 0.00 | 0.00 | 71 | 1013.1 |
| 20260502213315 | 14 | 271 | 17.7 | 29.0 | 0.00 | 0.00 | 0.00 | 71 | 1013.0 |
| 20260502212320 | 13 | 256 | 19.3 | 29.0 | 0.00 | 0.00 | 0.00 | 71 | 1013.1 |
| 20260502211323 | 14 | 254 | 19.3 | 27.4 | 0.00 | 0.00 | 0.00 | 71 | 1013.2 |
| 20260502210316 | 14 | 279 | 11.3 | 24.1 | 0.00 | 0.00 | 0.00 | 71 | 1013.2 |
| 20260502205329 | 13 | 256 | 12.9 | 24.1 | 0.00 | 0.00 | 0.00 | 72 | 1013.3 |
| 20260502204315 | 13 | 250 | 17.7 | 27.4 | 0.00 | 0.00 | 0.00 | 73 | 1013.3 |
| 20260502203346 | 13 | 275 | 14.5 | 24.1 | 0.00 | 0.00 | 0.00 | 74 | 1013.5 |
| 20260502202316 | 13 | 264 | 16.1 | 27.4 | 0.00 | 0.00 | 0.00 | 74 | 1013.5 |
| 20260502201322 | 13 | 264 | 9.7 | 20.9 | 0.00 | 0.00 | 0.00 | 74 | 1013.7 |
| 20260502200334 | 13 | 290 | 16.1 | 25.7 | 0.00 | 0.00 | 0.00 | 74 | 1013.7 |
| 20260502195325 | 13 | 260 | 17.7 | 25.7 | 0.00 | 0.00 | 0.00 | 73 | 1013.5 |
| 20260502194328 | 13 | 241 | 14.5 | 24.1 | 0.00 | 0.00 | 0.00 | 74 | 1013.6 |
| 20260502193326 | 13 | 246 | 14.5 | 25.7 | 0.00 | 0.00 | 0.00 | 74 | 1013.6 |
| 20260502192315 | 13 | 260 | 16.1 | 22.5 | 0.00 | 0.00 | 0.00 | 73 | 1013.6 |
| 20260502191320 | 13 | 265 | 11.3 | 19.3 | 0.00 | 0.00 | 0.00 | 73 | 1013.7 |
| 20260502190354 | 13 | 265 | 12.9 | 20.9 | 0.00 | 0.00 | 0.00 | 72 | 1013.7 |
| 20260502185339 | 13 | 252 | 12.9 | 20.9 | 0.00 | 0.00 | 0.00 | 73 | 1013.7 |
| 20260502184349 | 13 | 298 | 11.3 | 22.5 | 0.00 | 0.00 | 0.00 | 72 | 1013.6 |
| 20260502183333 | 14 | 279 | 11.3 | 19.3 | 0.00 | 0.00 | 0.00 | 71 | 1013.5 |
| 20260502182324 | 14 | 275 | 9.7 | 19.3 | 0.00 | 0.00 | 0.00 | 71 | 1013.6 |